Flag for Germany Weather past 2 weeks in Dreieich, Hesse, Germany

Now
67 °F

Scattered clouds.


Feels Like: 67 °F
Forecast: 49 / 69 °F
Wind: 2 mph from Northeast

Location: Frankfurt / M-Flughafen

Current Time: May 22, 2015 at 6:37:22 PM

Latest Report: May 22, 2015 at 6:00 PM


Visibility: 31 mi

Pressure: 30.19 "Hg

Humidity: 32%

Dew point: 36 °F

Location of DreieichLocation

Historic Weather in Dreieich — Graph

°F

Dreieich temperature yesterday

Maximum temperature yesterday: 63 °F (at 6:00 PM)
Minimum temperature yesterday: 40 °F (at 4:00 AM)
Average temperature yesterday: 53 °F

Past Weeks' High & Low Weather Summary

 TemperatureHumidityPressure
High83 °F (May 12, 5:00 PM)98% (May 10, 4:00 AM)30.35 "Hg (May 10, 4:00 AM)
Low40 °F (May 21, 4:00 AM)25% (May 18, 3:00 PM)29.67 "Hg (May 19, 3:00 AM)
Average59 °F60%30.07 "Hg
* Reported May 7 6:00 PM — May 22 5:00 PM, Dreieich, Weather by CustomWeather, © 2015

Note: Actual official high and low records may vary slightly from our data, if they occured in-between our weather recording intervals... More about our weather records

Advertising

Dreieich weather history for previous 24 hours

 ConditionsComfort  
Time TempWeatherWind HumidityBarometerVisibility
5:00 PM
Fri, May 22
67 °FScattered clouds.1 mph31%30.21 "Hg31 mi
4:00 PM67 °FScattered clouds.2 mph30%30.23 "Hg31 mi
3:00 PM66 °FScattered clouds.3 mph30%30.24 "Hg31 mi
2:00 PM67 °FPassing clouds.3 mph29%30.26 "Hg31 mi
1:00 PM64 °FPassing clouds.3 mph32%30.29 "Hg31 mi
12:00 PM64 °FPassing clouds.2 mph33%30.31 "Hg31 mi
10:00 AM57 °FPassing clouds.1 mph50%30.34 "Hg31 mi
9:00 AM53 °FPassing clouds.1 mph58%30.34 "Hg31 mi
8:00 AM49 °FPassing clouds.2 mph70%30.35 "Hg31 mi
7:00 AM46 °FPassing clouds.2 mph79%30.35 "Hg31 mi
6:00 AM44 °FPassing clouds.3 mph84%30.34 "Hg25 mi
4:00 AM40 °FClear.1 mph93%30.35 "Hg25 mi
3:00 AM41 °FClear.1 mph89%30.35 "Hg28 mi
2:00 AM42 °FPassing clouds.1 mph88%30.34 "Hg31 mi
1:00 AM44 °FPassing clouds.1 mph82%30.34 "Hg31 mi
12:00 AM46 °FPassing clouds.1 mph75%30.34 "Hg31 mi
10:00 PM
Thu, May 21
51 °FPassing clouds.1 mph63%30.32 "Hg34 mi
9:00 PM60 °FPassing clouds.1 mph39%30.29 "Hg40 mi
8:00 PM62 °FScattered clouds.3 mph34%30.28 "Hg43 mi
7:00 PM63 °FScattered clouds.3 mph32%30.27 "Hg43 mi
6:00 PM63 °FScattered clouds.3 mph32%30.27 "Hg43 mi
Weather by CustomWeather, © 2015

See weather overviewHow to use our weather pages